Lid_Strength_Index
5 5 5 4 4 4 4 4 4 4 4 4 4 4 4 4 4 7 8 6 6 6 7 9 10 10 10 10 9 7 12 14 12 11 11 8 10 8 8 10 9 8 8 7 6
5 5 5 5 4 4 4 4 4 4 4 4 4 5 4 5 7 10 6 5 6 8 10 11 12 11 12 12 10 11 13 13 10 10 11 10 10 10 11 12 11 10 8 8 8
5 5 5 5 4 4 4 4 4 4 4 4 5 5 5 6 10 11 5 6 8 9 10 10 11 12 13 12 12 12 14 11 11 10 11 12 12 10 12 13 11 11 10 9 9
5 5 5 5 5 4 4 4 4 4 4 5 5 5 6 8 14 8 6 8 8 9 10 11 12 13 14 14 12 15 13 13 12 11 12 12 10 12 11 12 10 9 9 9 9
5 5 5 5 4 4 4 4 4 4 4 5 5 6 7 11 11 7 7 8 9 10 12 12 13 13 15 14 13 15 14 13 12 12 10 9 11 11 11 9 8 7 8 8 8
5 5 5 5 4 4 4 4 4 4 5 6 6 7 9 14 9 7 9 10 10 11 11 11 12 12 14 14 15 13 13 13 12 10 9 10 10 9 9 7 7 7 7 7 8
5 5 5 5 4 4 4 4 4 5 6 6 6 7 10 11 8 8 9 10 9 10 12 10 10 12 12 14 12 12 15 13 11 9 9 8 11 11 8 7 7 6 6 6 6
5 5 5 5 4 4 4 4 5 6 7 7 6 8 12 8 7 9 8 10 9 9 10 9 10 11 12 11 12 14 13 15 11 8 8 8 14 9 7 7 7 7 6 6 6
5 5 5 4 4 4 4 5 6 7 8 8 8 9 13 9 11 9 9 11 10 10 10 10 10 12 11 13 14 12 15 14 12 8 8 9 12 9 7 7 7 7 6 6 6
5 4 5 4 4 4 5 6 7 9 9 9 10 13 12 14 11 10 9 10 12 12 12 12 12 14 12 12 17 15 14 13 13 10 9 10 11 9 7 7 7 7 6 6 6
4 5 5 5 5 5 6 8 10 11 11 13 13 14 12 11 10 11 10 11 12 12 14 11 15 15 12 10 10 11 12 13 12 10 10 11 11 9 7 7 7 7 6 6 5
4 5 5 5 5 6 7 11 12 12 17 13 13 13 12 11 14 12 11 14 13 15 12 13 16 11 9 10 12 12 13 13 11 10 10 11 11 9 8 7 7 7 6 6 5
5 5 5 5 5 6 8 11 9 10 16 14 13 14 13 12 14 14 12 12 14 15 13 14 12 10 11 12 12 12 12 13 13 11 10 11 12 11 8 7 7 7 7 6 7
5 5 5 5 7 7 9 10 9 10 16 15 15 14 13 13 15 12 12 13 13 14 13 14 10 11 11 11 10 14 10 11 12 13 17 11 18 13 10 9 9 9 8 7 7
5 6 6 6 8 10 9 9 9 12 19 16 16 12 13 15 14 12 11 13 16 15 13 14 12 11 12 11 9 13 10 11 12 14 14 14 16 13 10 11 9 9 8 8 8
5 5 6 7 7 7 8 9 11 16 19 16 15 16 15 13 13 12 13 12 11 15 13 12 8 8 9 9 9 9 11 12 12 14 19 15 15 15 12 11 10 9 9 9 9
6 6 7 7 10 8 8 11 16 18 13 16 17 14 15 16 16 15 16 16 15 18 16 13 11 8 8 10 9 11 13 18 19 19 19 13 16 14 11 9 10 11 10 9 10
7 7 7 8 8 8 10 13 19 16 16 14 15 16 18 16 17 16 16 17 13 13 15 16 16 10 8 10 12 12 13 18 23 21 19 14 18 14 10 9 10 9 10 10 10
7 8 9 8 8 9 12 17 17 17 16 17 17 19 18 17 17 17 17 16 14 13 15 15 15 9 8 8 9 12 15 11 17 16 19 16 13 11 10 11 10 11 11 11 11
10 10 10 9 9 10 15 17 16 15 16 16 20 18 21 19 19 18 18 14 14 10 8 11 16 10 9 8 8 11 10 16 15 21 22 17 16 15 12 12 12 12 12 12 12
10 13 10 9 9 13 17 17 17 15 15 18 19 20 19 20 20 19 18 16 13 13 10 10 12 13 10 12 13 12 13 13 13 15 20 21 19 10 13 13 13 13 13 13 14
12 15 10 10 15 15 17 16 16 16 15 17 16 18 19 20 21 20 19 16 11 12 14 9 12 16 13 10 11 12 13 13 17 18 16 18 19 11 12 11 11 13 14 14 14
15 15 11 11 18 17 15 17 16 18 18 18 18 18 17 21 23 19 18 14 13 13 14 12 14 17 16 13 12 13 12 13 13 14 18 20 18 11 11 11 11 14 14 14 15
15 17 14 14 14 18 19 19 20 16 18 17 18 18 19 21 19 21 20 16 13 13 10 10 14 16 18 15 12 14 13 12 14 18 18 17 17 14 13 12 13 14 15 15 15
14 16 16 17 16 17 18 19 20 20 17 17 19 19 20 23 22 21 19 16 14 12 12 13 18 14 14 12 12 13 14 14 16 16 18 17 18 15 14 13 14 14 15 16 16
15 16 16 18 17 18 18 19 20 20 19 20 20 19 19 21 20 21 19 17 16 12 13 13 16 14 16 13 14 17 15 15 15 15 17 17 18 13 12 12 13 14 16 17 17
12 13 16 17 18 19 19 19 19 18 18 17 18 19 20 19 15 14 13 13 13 13 13 14 15 15 18 16 16 18 15 15 14 14 15 16 13 11 13 13 13 15 16 17 17